Cosmos 1206 Rocket - Orbit

View from above orbital plane
View from above orbital plane
View from above satellite
View from above satellite

Ground track
Ground track

The orbit data is extracted from the following two-line orbital elements,

1 11933U 80069B   13169.98428657  .00016322  00000-0  23372-3 0    17
2 11933 081.2109 079.3425 0014266 151.6544 208.6008 15.56028757806324
Epoch (UTC): 18 June 2013 23:37:22
Eccentricity: 0.0014266
inclination: 81.2109°
perigee height: 389 km
apogee height: 409 km
right ascension of ascending node: 79.3425°
argument of perigee: 151.6544°
revolutions per day: 15.56028757
mean anomaly at epoch: 208.6008°
orbit number at epoch: 80632

The dashed part of the orbit path shows where the satellite is in the earth's shadow,  

Developed and maintained by Chris Peat, Heavens-Above GmbH. Please read the updated FAQ before sending e-mail. Imprint. DLR